Showing default

ANSER-LS, 62644

Orbit data source: Space-Track

ANSER-LS, 62644 is a payload satellite owned by INTA (ES) in SSO that was launched on Tue, 14 Jan 2025 UTC via an FALCON 9 launch vehicle from the Air Force Western Test Range (AFWTR). Payload-class satellites include a variety of spacecraft equipped with specific instruments for various scientific and technological missions. These include communications satellites like Starlink; space stations such as the ISS; scientific satellites like the Hubble; Earth observation satellites from companies like Planet Labs, Umbra, and HawkEye 360; GPS; miniature CubeSats for education and research; and military/defense satellites.

Loading next visibility...
Identifier
62644, 2025-009AM
Orbit
SSO
Last TLE update
13 hours ago
Origin
Manufacturer
INTA
Mission
Operational Commercial Imaging
Bus & Motor
CUBESAT 3U, Unknown motor
Mass
4 kg wet, 4 kg dry
Launch date (UTC)
2025-01-14 (6 months ago)
Launch vehicle
FALCON 9
Launch site
Air Force Western Test Range (AFWTR)
Object type
Payload
Rocket body
Debris
Shape & HBR
Box + 2 Pan, 0.3 m
Radar Cross Section
0.080 m², Small (<0.1 m²)

Expand to show TLE details & history

TLE from 13 hours ago
0 ANSER-LS
1 62644U 25009AM  25186.20878503  .00023027  00000-0  96372-3 0  9997
2 62644  97.4341 266.6426 0003156  99.5112 260.6482 15.23566924 26038
Epoch: 2025-07-05T05:00Z
TLE epoch observation values (Epoch: 2025-07-05T05:00:39.026Z)
Latitude
-0.00001°
Longitude
-91.97013°
Altitude
498.54 km
Speed
7.615 km/s
True Right ascension
17h 46m 34s
True Declination
0° 00' 00"
Sunlit
Object was in full shadow at epoch
Visualization orbit readout
Latitude
73.96917°
Longitude
115.4171°
Altitude
505.558 km
Speed
7.619 km/s
Apparent Right ascension
17h 04m 52s
Apparent Declination
37° 48' 49"
Sunlit
Object is in daylight
Visualization observer readout
Local Sidereal Time
06:00:05
Azimuth
11.08° NNE
Elevation
-11.246°
Doppler factor
1
Orbital elements
Apogee altitude
494.223 km
Perigee altitude
489.886 km
Semi-major axis
6,870.191 km
Eccentricity
0.00032
Inclination
97.4341°
RAAN
266.6426°
Arg. of periapsis
99.5112°
True anomaly
Unknown
Mean anomaly
260.6482°
Eccentric anomaly
Unknown
Mean motion
3.81145 °/min
Orbital period
94.45 mins
BSTAR
0.00096372
Loading maneuver chart data...
Loading SW <> Apogee altitude chart data...
Loading historical data...
Loading historical data...
Loading historical data...
Loading historical data...
Loading historical data...
Loading historical data...
Loading historical data...

ANSER-LS Visibility forecast

Observer location: undefined°, undefined°

Span
Click to sort rows by Start time (UTC) header in descending order
Start Az.
Max El. time (UTC)
Max El. Az.
Max El.
End time (UTC)
End Az.
6 mins2025-07-05 18:10:36.718Z14.86° NNE2025-07-05 18:13:36.718Z44.681° NE43.19°2025-07-05 18:16:36.718Z187.727° SSW
4 mins2025-07-06 04:48:36.718Z114.466° SE2025-07-06 04:50:36.718Z62.797° ENE24.555°2025-07-06 04:52:36.718Z20.327° NNE
5 mins2025-07-06 17:50:36.718Z38.999° NE2025-07-06 17:52:36.718Z93.619° ESE32.052°2025-07-06 17:55:36.718Z165.53° S
|